Weather History for Edwards AFB North Base, CA

Change the Weather History Date:

Friday, August 15, 2014

  Actual Average (KEDW) Record (KEDW)
Temperature  
Mean Temperature 80 °F -  
Max Temperature 98 °F 97 °F 109 °F (2002)
Min Temperature 62 °F 63 °F 59 °F (1999)
Cooling Degree Days 14    
Growing Degree Days 30 (Base 50)    
Moisture  
Dew Point 33 °F    
Average Humidity 19    
Maximum Humidity 32    
Minimum Humidity 7    
Precipitation  
Precipitation 0.00 in - - ()
Sea Level Pressure  
Sea Level Pressure 29.93 in    
Wind  
Wind Speed 12 mph (SW)    
Max Wind Speed 22 mph    
Max Gust Speed 29 mph    
Visibility 10 miles    
Events      
Averages and records for this station are not official NWS values.
T = Trace of Precipitation, MM = Missing Value Source: NWS Daily Summary

Daily Weather History Graph

Daily Weather History Graph

Search for Another Location

Airport:

Trip Planner

Search our weather history database for the weather conditions in past years. The results will help you decide how hot, cold, wet, or windy it might be!

Date:

Astronomy

Aug. 15, 2014 Rise Set
Actual Time 6:11 AM PDT 7:39 PM PDT
Civil Twilight 5:44 AM PDT 8:06 PM PDT
Nautical Twilight 5:12 AM PDT 8:38 PM PDT
Astronomical Twilight 4:38 AM PDT 9:12 PM PDT
Moon 11:00 PM PDT (8/15) 11:44 AM PDT (8/15)
Length of Visible Light 14h 21m
Length of Day
13h 28m
Waning Gibbous, 68% of the Moon is Illuminated
Aug 15
Waning Gibbous
Aug 17
Last Quarter
Aug 25
New
Sep 2
First Quarter
Sep 8
Full

Hourly Weather History & Observations

Time (PDT) Temp. Dew Point Humidity Pressure Visibility Wind Dir Wind Speed Gust Speed Precip Events Conditions
12:55 AM 75.0 °F 7.0 °F 7% 29.92 in 10.0 mi WSW 11.5 mph - N/A   Clear
1:55 AM 75.9 °F 7.0 °F 7% 29.91 in 10.0 mi West 15.0 mph - N/A   Clear
2:55 AM 69.1 °F 12.9 °F 11% 29.92 in 10.0 mi WNW 10.4 mph - N/A   Clear
3:55 AM 71.1 °F 18.0 °F 13% 29.93 in 10.0 mi Variable 4.6 mph - N/A   Clear
4:55 AM 64.0 °F 28.0 °F 26% 29.94 in 10.0 mi SSE 6.9 mph - N/A   Clear
5:55 AM 62.1 °F 30.9 °F 31% 29.95 in 10.0 mi SSE 4.6 mph - N/A   Clear
6:55 AM 62.1 °F 32.0 °F 32% 29.98 in 10.0 mi South 9.2 mph - N/A   Clear
7:55 AM 66.0 °F 33.1 °F 29% 29.99 in 10.0 mi South 4.6 mph - N/A   Clear
8:55 AM 75.0 °F 30.9 °F 20% 29.99 in 10.0 mi South 11.5 mph - N/A   Clear
9:55 AM 82.0 °F 32.0 °F 16% 29.99 in 10.0 mi South 8.1 mph - N/A   Clear
10:55 AM 89.1 °F 28.9 °F 12% 29.98 in 10.0 mi SSW 13.8 mph - N/A   Clear
11:55 AM 91.9 °F 33.1 °F 12% 29.96 in 10.0 mi WSW 13.8 mph 17.3 mph N/A   Clear
12:55 PM 95.0 °F 35.1 °F 12% 29.94 in 10.0 mi West 11.5 mph 20.7 mph N/A   Clear
1:55 PM 95.0 °F 39.0 °F 14% 29.92 in 10.0 mi SW 12.7 mph 23.0 mph N/A   Clear
2:55 PM 96.1 °F 43.0 °F 16% 29.91 in 10.0 mi SW 18.4 mph 24.2 mph N/A   Clear
3:55 PM 97.0 °F 39.0 °F 13% 29.89 in 10.0 mi WSW 18.4 mph 25.3 mph N/A   Clear
4:55 PM 96.1 °F 39.9 °F 14% 29.89 in 10.0 mi SW 21.9 mph 28.8 mph N/A   Clear
5:55 PM 93.9 °F 39.9 °F 15% 29.88 in 10.0 mi SW 20.7 mph 26.5 mph N/A   Clear
6:55 PM 91.0 °F 41.0 °F 17% 29.89 in 10.0 mi SW 18.4 mph 26.5 mph N/A   Clear
7:55 PM 87.1 °F 43.0 °F 21% 29.90 in 10.0 mi SW 19.6 mph 26.5 mph N/A   Clear
8:55 PM 82.9 °F 46.0 °F 27% 29.93 in 10.0 mi SW 15.0 mph - N/A   Clear
9:55 PM 80.1 °F 46.9 °F 31% 29.94 in 10.0 mi SW 15.0 mph - N/A   Clear
10:55 PM 79.0 °F 46.9 °F 32% 29.94 in 10.0 mi SW 13.8 mph - N/A   Clear
11:55 PM 78.1 °F 45.0 °F 31% 29.94 in 10.0 mi SW 15.0 mph - N/A   Clear